Weather in Louisville

United States     38°15′16″N   85°46′05″W
temp.,
°C
wind,
m/s
gust,
m/s
humid.,
%
clouds,
%
prec.,
mm/h
press.,
hPa
HPBL,
m
18 september, sat
sat1823:00+24s248051 0.0 1019118
02:00+22sw01845 0.0 101913
05:00+21n11964 1.3 101927
08:00+21ne11958 1.3 102033
11:00+25ese12805 0.8 1020192
14:00+30e23475 1.1 10191629
17:00+30se2246100 0.0 10172105
20:00+25sw1171100 0.2 101826
19 september, sun
sun1923:00+24sw1181100 0.0 101912
02:00+22nnw1184100 0.0 101917
05:00+22ese1187100 0.0 101912
08:00+21ne238583 0.0 1020105
11:00+26e2458100 0.0 1020481
14:00+30e3446100 0.0 10181223
17:00+29ese3548100 0.0 10161529
20:00+25ssw3873100 0.3 1017410
20 september, mon
mon2023:00+23s3977100 0.0 1018542
02:00+21sse3989100 0.4 1019529
05:00+20sse2697100 1.8 1018391
08:00+20se3798100 8.9 1018452
11:00+20se41298100 12.4 1019893
14:00+20sse51296100 17.1 1018939
17:00+20sse5119592 0.6 1017685
20:00+20sse41192100 0.7 1018613
21 september, tue
tue2123:00+19sse31189100 0.0 1018433
02:00+19sse31189100 0.0 1018432
05:00+19sse31188100 0.0 1017469
08:00+19s31198100 1.1 1018441
11:00+20s3997100 0.9 1018494
14:00+24s378828 4.4 1017743
17:00+25sw378610 2.8 1015691
20:00+22w3893100 5.8 1015331
22 september, wed
wed2223:00+19nnw4995100 1.0 1016584
02:00+17nnw4996100 2.1 1017582
05:00+16nnw5119154 0.2 1018773
08:00+14nnw312911 0.2 1020719
11:00+18n58683 0.0 1022993
14:00+21nnw57460 0.0 10211644
17:00+21n58440 0.0 10201810
20:00+16nnw39530 0.0 1022620